Overview Statistics Trail Chart Weather Telemetry Raw packets
 

This is the latest recevied weather packets stored in our database for station/object K6CEG. If no packets are shown the sender has not sent any weather packets the latest 10 day(s).

<< 2 3 4 5 6 7 8 >>
Time Temp. Humidity Pressure Rain* Wind** Luminosity Snow
1788660830 28.33° C 33% 1014.1 hPa 0 mm - 1 W/m² -
1788660525 28.33° C 32% 1014.3 hPa 0 mm - 3 W/m² -
1788660225 28.89° C 31% 1014.2 hPa 0 mm - 4 W/m² -
1788659919 29.44° C 30% 1014.3 hPa 0 mm - 7 W/m² -
1788659619 29.44° C 28% 1014.1 hPa 0 mm - 10 W/m² -
1788659319 30° C 28% 1014.1 hPa 0 mm - 11 W/m² -
1788659014 30° C 27% 1014.2 hPa 0 mm - 14 W/m² -
1788658710 30° C 27% 1014 hPa 0 mm - 15 W/m² -
1788658405 30° C 28% 1014 hPa 0 mm - 21 W/m² -
1788658101 30° C 27% 1014.1 hPa 0 mm - 26 W/m² -
1788657801 30° C 28% 1014.2 hPa 0 mm - 25 W/m² -
1788657495 30.56° C 27% 1014.1 hPa 0 mm - 27 W/m² -
1788657195 31.11° C 27% 1014 hPa 0 mm - 48 W/m² -
1788656892 30.56° C 29% 1013.8 hPa 0 mm - 50 W/m² -
1788656588 30.56° C 29% 1014 hPa 0 mm - 72 W/m² -
1788656282 30.56° C 30% 1013.9 hPa 0 mm - 55 W/m² -
1788655981 30.56° C 29% 1014 hPa 0 mm - 53 W/m² -
1788655680 30.56° C 29% 1014 hPa 0 mm - 52 W/m² -
1788655376 30.56° C 30% 1013.9 hPa 0 mm - 49 W/m² -
1788655076 31.11° C 30% 1013.8 hPa 0 mm - 46 W/m² -
1788654772 31.11° C 31% 1013.9 hPa 0 mm - 44 W/m² -
1788654467 31.67° C 31% 1013.8 hPa 0 mm - 52 W/m² -
1788654166 31.11° C 32% 1013.8 hPa 0 mm - 58 W/m² -
1788653862 31.11° C 32% 1013.8 hPa 0 mm - 107 W/m² -
1788653557 31.67° C 32% 1013.9 hPa 0 mm - 55 W/m² -

* Rain latest hour (hover to see other rain measurements)
** Current wind speed in m/s (hover to see current wind gust speed)